User: anonymous   Login
Location: Maddington
(51.2000°N, 1.9167°W)
Time: 20:39:27
(UTC+00:00)
Language:

Cosmos 1513 Rocket - Orbit

View from above orbital plane
View from above orbital plane
View from above satellite
View from above satellite

Ground track
Ground track

The orbit data is extracted from the following two-line orbital elements,

1 14547U 83120B   20332.85146405 +.00000033 +00000-0 +18546-4 0  9992
2 14547 082.9335 234.0339 0045838 302.6058 057.0678 13.77132675613600
Epoch (UTC): 27 November 2020 20:26:06
Eccentricity: 0.0045838
inclination: 82.9335°
perigee height: 940 km
apogee height: 1008 km
right ascension of ascending node: 234.0339°
argument of perigee: 302.6058°
revolutions per day: 13.77132675
mean anomaly at epoch: 57.0678°
orbit number at epoch: 61360

The dashed part of the orbit path shows where the satellite is in the earth's shadow,  

DLR